Location: Wanzleben
(52.0609°N, 11.4408°E)
Time: 16:56:31
(UTC+00:00)

Envisat - Pass Details

Date: 26 November 2020
Orbit: 764 x 766 km, 98.1° (Epoch: 20 January)

Event Time Altitude Azimuth Distance (km) Brightness Sun altitude
Rises 05:01:53 0° 16° (NNE) 3,248 6.3 -16.4°
Reaches altitude 10° 05:04:15 10° 21° (NNE) 2,317 5.6 -16.0°
Maximum altitude 05:09:18 59° 101° (E) 882 3.6 -15.3°
Drops below altitude 10° 05:14:18 10° 181° (S) 2,299 5.7 -14.5°
Sets 05:16:38 0° 185° (S) 3,221 6.4 -14.2°
